Regional Weather Roundup
Issued by NWS

Home | Current Version | Previous Version | Graphics & Text | Print | Product List | Glossary On
Versions: 1 2 3 4 5 6 7 8 9 10 11 12 13 14 15 16 17 18 19 20 21 22 23 24 25 26 27 28 29 30 31 32 33 34 35 36 37 38 39 40 41 42 43 44 45 46 47 48 49 50
078
ASUS45 KTFX 241310
RWRMT
MONTANA REGIONAL WEATHER ROUNDUP
NATIONAL WEATHER SERVICE GREAT FALLS MT
700 AM MDT SUN SEP 24 2017

NOTE: "FAIR" INDICATES FEW OR NO CLOUDS BELOW 12000 FEET WITH NO
SIGNIFICANT WEATHER AND/OR OBSTRUCTIONS TO VISIBILITY.

MTZ001>007-043-241400-
WEST OF THE DIVIDE

CITY           SKY/WX    TMP DP  RH WIND       PRES   REMARKS
KALISPELL      CLOUDY    37  36  96 CALM      30.12S
MISSOULA       CLOUDY    34  33  96 CALM      30.15S
BUTTE          CLEAR     30  28  92 SE3       30.11S
MULLAN PASS    CLOUDY    36  33  89 NW5       30.11S
ANACONDA         N/A     28  25  86 SW5       30.12S
DEER LODGE       N/A     27  25  93 CALM      30.14S
EUREKA           N/A     41  39  93 CALM      30.12S
HAMILTON         N/A     30  28  93 SE5       30.15
LIBBY            N/A     41  39  93 CALM      30.10S
PLAINS           N/A     39  35  85 CALM      30.13S
$$

MTZ008-052>055-241400-
SOUTHWEST MONTANA

CITY           SKY/WX    TMP DP  RH WIND       PRES   REMARKS
BOZEMAN        CLOUDY    39  36  89 CALM      30.10S
DILLON         CLOUDY    33  26  75 S6        30.08S WCI  28
W YELLOWSTONE  CLOUDY    34  28  80 VRB7G15   30.04S WCI  28
ENNIS          CLOUDY    36  32  87 CALM      30.11S
THREE FORKS      N/A     32  27  82 NW2       30.09R
TWIN BRIDGES     N/A     30  24  78 CALM      30.06S
$$

MTZ009-010-012-014-046-048-049-054-241400-
EAST SLOPES AND CENTRAL MONTANA

CITY           SKY/WX    TMP DP  RH WIND       PRES   REMARKS
CUT BANK       PTCLDY    28  26  92 NW6       30.08S WCI  22
GREAT FALLS    CLEAR     31  28  89 SW8       30.09S WCI  23
MALMSTROM AFB  CLEAR     32  31  96 SW5       30.10S
HELENA         CLEAR     33  30  88 CALM      30.11R
BOWMANS CRNR     N/A     29  28  96 S8        30.07S WCI  21
CHOTEAU          N/A     34  28  80 SW8       30.09S WCI  27
FAIRFIELD        N/A     32  27  80 CALM      30.08S
POWER            N/A     27  27  98 CALM      30.07S
RAYNESFORD       N/A     31  27  86 CALM      30.11R
ULM              N/A     32  29  87 CALM      30.10S
$$

MTZ011-013-016-021-045-047-050-051-241400-
NORTH CENTRAL MONTANA

CITY           SKY/WX    TMP DP  RH WIND       PRES   REMARKS
HAVRE          CLOUDY    39  38  96 CALM      30.09S
LEWISTOWN      CLOUDY    35  35 100 E5        30.09S
N BAR RANCH    CLOUDY    34  34 100 CALM      30.12S
CHINOOK          N/A     36  36 100 CALM      30.10S VSB 0
DENTON           N/A     30  29  95 S6        30.07S WCI  24
GEYSER           N/A     33  28  80 SW12      30.09R WCI  25
JUDITH GAP     MOCLDY    37  35  96 CALM      30.08S
WINIFRED         N/A     34 N/A N/A SE9       30.09S WCI  26
$$

MTZ017>020-022>027-061-062-241400-
NORTHEAST MONTANA

CITY           SKY/WX    TMP DP  RH WIND       PRES   REMARKS
GLASGOW        CLOUDY    47  40  76 CALM      30.11S
JORDAN           N/A     43  41  93 CALM      30.11S
SIDNEY         LGT RAIN  43  41  93 N8        30.11S
WOLF POINT     CLOUDY    45  43  93 CALM      30.12S
MALTA          CLOUDY    36  36 100 NE3       30.12S FOG
PLENTYWOOD       N/A     45  43  93 CALM      30.11S
POPLAR           N/A     45  43  93 CALM      30.12S
SCOBEY           N/A     42  36  79 CALM      30.09S
$$

MTZ028>42-056>058-241400-
SOUTHCENTRAL AND SOUTHEAST MONTANA

CITY           SKY/WX    TMP DP  RH WIND       PRES   REMARKS
BAKER          CLOUDY    41  39  93 N8        30.08R
BILLINGS       PTCLDY    39  37  92 CALM      30.10R
LIVINGSTON     CLOUDY    38  33  82 NW6       30.09S
MILES CITY     CLOUDY    42  40  92 N5        30.10S
BIG TIMBER     CLOUDY    37  36  93 CALM      30.12S
EKALAKA          N/A     40  38  93 N7        30.04
HARLOWTON      MOCLDY    35  34  96 MISG      30.09S
LAUREL           N/A     36  36 100 CALM      30.12R
$$

REGIONAL REPORTS...DAKOTAS

CITY           SKY/WX    TMP DP  RH WIND       PRES   REMARKS
WILLISTON      LGT RAIN  44  42  93 N10       30.10S
MINOT          LGT RAIN  47  45  93 N13       30.03S
DICKINSON      CLOUDY    43  42  97 N9        30.03R
BEACH          CLOUDY    39  39 100 N10       30.12R
CROSBY         MOCLDY    43  43 100 N7        30.11S
TIOGA          MOCLDY    43  43 100 N9        30.09R
BISMARCK       RAIN      49  48  97 NW9       29.97S FOG
GRAND FORKS    LGT RAIN  52  52 100 N13       29.89F
FARGO          CLOUDY    57  56  96 N7        29.85F
BUFFALO SD       N/A     44  42  93 N10       29.98R
RAPID CITY     CLOUDY    45  43  93 N16       30.01S
$$

REGIONAL REPORTS...WYOMING/IDAHO/WASHINGTON

CITY           SKY/WX    TMP DP  RH WIND       PRES   REMARKS
GILLETTE       CLOUDY    38  38 100 N12       30.06R WCI  30
SHERIDAN       CLOUDY    39  38  96 CALM      30.09S
BUFFALO WY     FOG       37  34  89 N10       30.07S VSB 1/4 WCI  30
CODY           CLOUDY    36  33  89 N8        30.09R WCI  30
IDAHO FALLS    CLOUDY    33  29  85 N3        29.99S
SALMON         CLEAR     28  26  92 CALM      30.12S
BOISE          CLEAR     37  32  82 CALM      30.03S
SPOKANE        PTCLDY    47  43  86 SE3       30.10R
$$

REGIONAL REPORTS...ALBERTA

CITY           SKY/WX    TMP DP  RH WIND       PRES   REMARKS
EDMONTON       CLOUDY    45  39  81 S7        30.00F
CALGARY        PTCLDY    37  32  81 SW3       30.05S
LETHBRIDGE     CLEAR     23  23 100 W5        30.08S
MEDICINE HAT   PTCLDY    34  32  93 N5        30.08S
$$

REGIONAL REPORTS...SASKATCHEWAN

CITY           SKY/WX    TMP DP  RH WIND       PRES   REMARKS
SWIFT CURRENT    N/A     36  34  93 S5        30.09S
REGINA         MOCLDY    36  34  93 N3        30.13F
SASKATOON      MOCLDY    41  37  87 SE3       30.14S
$$




USA.gov is the U.S. government's official web portal to all federal, state and local government web resources and services.